Simultaneous Nadir Overpasses (SNOs) Predictions

Prediction of SNOs between AQUA and METOP-A Satellite Orbit:

Table of predicted SNOs for the next 14.0 days since TLE Epoch: 5/18/2018
Index Date (AQUA) Time (AQUA) Lat,Lon (AQUA) SZA (AQUA ) Date (METOP-A) Time (METOP-A) Lat,Lon (METOP-A) SZA (METOP-A ) Distance(km) Time Diff (sec)
1 05/21/2018 04:42:35 -74.37, -77.45 125.79 05/21/2018 04:42:04 -74.37, -77.37 125.79 2.46 31
2 05/21/2018 05:32:04 74.42, 90.06 54.26 05/21/2018 05:32:43 74.40, 90.05 54.24 2.29 39
3 05/24/2018 00:16:47 -74.34, -10.92 126.38 05/24/2018 00:16:21 -74.35, -11.01 126.36 2.96 26
4 05/24/2018 01:06:17 74.44, 156.45 53.74 05/24/2018 01:06:59 74.43, 156.54 53.72 2.81 42
5 05/26/2018 19:51:01 -74.36, 55.47 126.85 05/26/2018 19:50:38 -74.38, 55.47 126.83 2.19 23
6 05/26/2018 20:40:30 74.42,-137.05 53.21 05/26/2018 20:41:17 74.41,-137.11 53.20 2.17 47
7 05/29/2018 15:25:15 -74.39, 121.84 127.27 05/29/2018 15:24:56 -74.36, 121.81 127.30 3.46 19
8 05/29/2018 16:14:44 74.46, -70.69 52.80 05/29/2018 16:15:34 74.44, -70.64 52.77 2.43 50
9 06/01/2018 10:09:50 73.77, 22.04 51.68 06/01/2018 10:08:44 73.70, 19.29 51.72 86.07 66
10 06/01/2018 10:59:27 -74.37,-171.67 127.69 06/01/2018 10:59:12 -74.38,-171.72 127.68 1.92 15
11 06/01/2018 11:48:56 74.44, -4.22 52.39 06/01/2018 11:49:50 74.46, -4.17 52.40 2.37 54




NCC Satellite Simultaneous Nadir Overpasses (SNOs) Prediction Service
